Date String (YYYY-MM-DD hh:mm:ss) UTC,Instrument flags,absolute air pressure of the measurement (hPa),sample flow rate (lpm),inlet stack bypass flow (lpm),air temperature of the measurement (°C),ambient temperature measured by the external sensor (°C),aerosol sample conditioner tube jacket temperature (°C),OPC LED temperature (°C),internal box temperature (°C),relative humidity of the measurement (%),span deviation,mass concentration of particles derived from Lorenz-Mie calculation of OPC scattering (μg/m³),mass concentration of particles derived from Lorenz-Mie calculation of OPC scattering (μg/m³),mass concentration of particles derived from Lorenz-Mie calculation of OPC scattering (μg/m³)
DateTimeUTC,F1_M11,P_M11,Q1_M11,Q2_M11,T1_M11,T2_M11,T3_M11,T4_M11,T5_M11,U1_M11,ZSPAN_M11,X0_M11,X2_M11,X1_M11
2024-04-19 03:00:00,SystemResetWarning,0834.9,5.01,000.00,019.6,018.9,000.0,028.2,021.4,024.0,0000.0,0009.11,0006.15,0005.60
2024-04-19 03:01:00,SystemResetWarning,0835.0,4.99,000.00,019.6,018.9,000.0,028.2,021.4,023.9,0000.0,0009.10,0006.13,0005.62
2024-04-19 03:02:00,SystemResetWarning,0834.8,5.00,000.00,019.6,018.9,000.0,028.2,021.4,023.9,0000.0,0009.11,0006.17,0005.64
2024-04-19 03:03:00,SystemResetWarning,0834.8,4.99,000.00,019.6,018.9,000.0,028.2,021.4,024.0,0000.0,0009.19,0006.18,0005.62
2024-04-19 03:04:00,SystemResetWarning,0834.8,5.01,000.00,019.6,019.0,000.0,028.2,021.4,023.9,0000.0,0009.41,0006.17,0005.62
2024-04-19 03:05:00,SystemResetWarning,0835.2,5.01,000.00,019.6,019.0,000.0,028.2,021.4,023.7,0000.0,0009.50,0006.21,0005.61
2024-04-19 03:06:00,SystemResetWarning,0835.4,5.01,000.00,019.6,019.0,000.0,028.2,021.4,023.7,0000.0,0009.43,0006.21,0005.61
2024-04-19 03:07:00,SystemResetWarning,0835.3,5.00,000.00,019.6,019.0,000.0,028.2,021.4,023.6,0000.0,0009.29,0006.19,0005.60
2024-04-19 03:08:00,SystemResetWarning,0835.3,4.99,000.00,019.6,019.0,000.0,028.2,021.4,023.6,0000.0,0009.27,0006.18,0005.58
2024-04-19 03:09:00,SystemResetWarning,0835.2,5.00,000.00,019.6,019.0,000.0,028.2,021.4,023.6,0000.0,0009.32,0006.16,0005.55
2024-04-19 03:10:00,SystemResetWarning,0834.9,5.00,000.00,019.6,019.0,000.0,028.2,021.4,023.5,0000.0,0009.37,0006.17,0005.54
2024-04-19 03:11:00,SystemResetWarning,0835.3,5.00,000.00,019.6,019.0,000.0,028.2,021.4,023.5,0000.0,0009.45,0006.20,0005.55
2024-04-19 03:12:00,SystemResetWarning,0834.9,5.01,000.00,019.6,019.0,000.0,028.2,021.4,023.6,0000.0,0009.46,0006.21,0005.54
2024-04-19 03:13:00,SystemResetWarning,0834.8,4.99,000.00,019.6,019.0,000.0,028.2,021.4,023.6,0000.0,0009.54,0006.24,0005.57
2024-04-19 03:14:00,SystemResetWarning,0835.1,5.00,000.00,019.6,019.0,000.0,028.2,021.4,023.7,0000.0,0009.52,0006.21,0005.57
2024-04-19 03:15:00,SystemResetWarning,0834.6,5.01,000.00,019.6,019.0,000.0,028.2,021.4,023.6,0000.0,0009.26,0006.21,0005.58
2024-04-19 03:16:00,SystemResetWarning,0834.6,5.01,000.00,019.6,019.0,000.0,028.2,021.4,023.7,0000.0,0009.14,0006.18,0005.58
2024-04-19 03:17:00,SystemResetWarning,0835.0,5.00,000.00,019.6,019.0,000.0,028.2,021.4,023.6,0000.0,0009.33,0006.25,0005.59
2024-04-19 03:18:00,SystemResetWarning,0834.7,5.00,000.00,019.6,019.0,000.0,028.2,021.4,023.6,0000.0,0009.48,0006.31,0005.61
2024-04-19 03:19:00,SystemResetWarning,0834.7,5.00,000.00,019.6,019.0,000.0,028.2,021.4,023.7,0000.0,0009.52,0006.33,0005.64
2024-04-19 03:20:00,SystemResetWarning,0834.7,5.00,000.00,019.6,019.1,000.0,028.2,021.4,023.7,0000.0,0009.36,0006.31,0005.65
2024-04-19 03:21:00,SystemResetWarning,0834.7,5.00,000.00,019.6,019.1,000.0,028.2,021.4,023.7,0000.0,0009.53,0006.29,0005.64
2024-04-19 03:22:00,SystemResetWarning,0834.6,5.00,000.00,019.6,019.0,000.0,028.2,021.4,023.7,0000.0,0010.18,0006.29,0005.62
2024-04-19 03:23:00,SystemResetWarning,0835.1,5.00,000.00,019.6,019.0,000.0,028.2,021.4,023.7,0000.0,0010.69,0006.30,0005.63
2024-04-19 03:24:00,SystemResetWarning,0834.6,5.00,000.00,019.6,019.0,000.0,028.2,021.4,023.6,0000.0,0010.82,0006.31,0005.63
2024-04-19 03:25:00,SystemResetWarning,0834.8,5.00,000.00,019.6,019.0,000.0,028.2,021.4,023.5,0000.0,0010.89,0006.36,0005.64
2024-04-19 03:26:00,SystemResetWarning,0834.9,5.00,000.00,019.6,019.0,000.0,028.2,021.4,023.5,0000.0,0011.19,0006.40,0005.63
2024-04-19 03:27:00,SystemResetWarning,0834.6,5.01,000.00,019.6,019.0,000.0,028.2,021.4,023.6,0000.0,0011.32,0006.38,0005.62
2024-04-19 03:28:00,SystemResetWarning,0834.7,5.00,000.00,019.6,019.0,000.0,028.2,021.4,023.6,0000.0,0011.43,0006.35,0005.62
2024-04-19 03:29:00,SystemResetWarning,0835.1,5.00,000.00,019.6,019.0,000.0,028.2,021.4,023.5,0000.0,0011.30,0006.31,0005.61
2024-04-19 03:30:00,SystemResetWarning,0834.8,4.99,000.00,019.6,019.0,000.0,028.2,021.4,023.5,0000.0,0011.24,0006.27,0005.59
2024-04-19 03:31:00,SystemResetWarning,0834.8,5.00,000.00,019.6,019.0,000.0,028.2,021.4,023.5,0000.0,0011.22,0006.24,0005.59
2024-04-19 03:32:00,SystemResetWarning,0835.0,5.00,000.00,019.6,019.0,000.0,028.1,021.4,023.5,0000.0,0011.13,0006.29,0005.61
2024-04-19 03:33:00,SystemResetWarning,0835.0,5.00,000.00,019.6,019.0,000.0,028.1,021.4,023.5,0000.0,0010.77,0006.33,0005.62
2024-04-19 03:34:00,SystemResetWarning,0835.0,5.00,000.00,019.6,019.0,000.0,028.2,021.4,023.5,0000.0,0010.17,0006.34,0005.62
2024-04-19 03:35:00,SystemResetWarning,0835.1,5.00,000.00,019.6,019.0,000.0,028.2,021.4,023.5,0000.0,0010.03,0006.34,0005.61
2024-04-19 03:36:00,SystemResetWarning,0834.7,5.00,000.00,019.6,019.0,000.0,028.2,021.4,023.5,0000.0,0010.03,0006.32,0005.61
2024-04-19 03:37:00,SystemResetWarning,0834.8,5.00,000.00,019.6,019.0,000.0,028.1,021.4,023.5,0000.0,0009.90,0006.34,0005.63
2024-04-19 03:38:00,SystemResetWarning,0834.9,5.00,000.00,019.6,019.0,000.0,028.2,021.4,023.4,0000.0,0009.66,0006.35,0005.64
2024-04-19 03:39:00,SystemResetWarning,0834.7,5.01,000.00,019.6,019.0,000.0,028.2,021.4,023.4,0000.0,0009.90,0006.35,0005.65
2024-04-19 03:40:00,SystemResetWarning,0835.0,5.00,000.00,019.6,019.0,000.0,028.2,021.4,023.4,0000.0,0010.20,0006.41,0005.67
2024-04-19 03:41:00,SystemResetWarning,0834.7,5.00,000.00,019.6,019.0,000.0,028.1,021.4,023.5,0000.0,0010.23,0006.44,0005.69
2024-04-19 03:42:00,SystemResetWarning,0834.7,5.00,000.00,019.6,019.1,000.0,028.1,021.4,023.6,0000.0,0011.30,0006.49,0005.71
2024-04-19 03:43:00,SystemResetWarning,0834.8,5.00,000.00,019.6,019.1,000.0,028.1,021.4,024.5,0000.0,0011.28,0006.47,0005.71
2024-04-19 03:44:00,SystemResetWarning,0834.8,4.99,000.00,019.6,019.1,000.0,028.1,021.4,024.1,0000.0,0011.18,0006.44,0005.72
2024-04-19 03:45:00,SystemResetWarning,0834.8,4.99,000.00,019.6,019.1,000.0,028.2,021.4,023.8,0000.0,0011.14,0006.43,0005.73
2024-04-19 03:46:00,SystemResetWarning,0834.8,5.00,000.00,019.6,019.1,000.0,028.2,021.4,023.6,0000.0,0011.21,0006.44,0005.73
2024-04-19 03:47:00,SystemResetWarning,0834.7,5.00,000.00,019.6,019.1,000.0,028.2,021.4,023.6,0000.0,0011.23,0006.48,0005.74
2024-04-19 03:48:00,SystemResetWarning,0834.7,5.00,000.00,019.6,019.1,000.0,028.2,021.4,023.7,0000.0,0011.26,0006.47,0005.74
2024-04-19 03:49:00,SystemResetWarning,0834.7,5.00,000.00,019.6,019.1,000.0,028.2,021.5,023.6,0000.0,0011.38,0006.51,0005.76
2024-04-19 03:50:00,SystemResetWarning,0834.7,5.00,000.00,019.6,019.1,000.0,028.2,021.4,023.6,0000.0,0011.35,0006.49,0005.77
2024-04-19 03:51:00,SystemResetWarning,0834.9,5.00,000.00,019.6,019.1,000.0,028.2,021.4,023.5,0000.0,0011.32,0006.46,0005.78
2024-04-19 03:52:00,SystemResetWarning,0835.1,5.00,000.00,019.6,019.1,000.0,028.2,021.5,023.5,0000.0,0011.26,0006.45,0005.78
2024-04-19 03:53:00,SystemResetWarning,0834.8,5.00,000.00,019.6,019.1,000.0,028.2,021.5,023.5,0000.0,0010.17,0006.41,0005.76
2024-04-19 03:54:00,SystemResetWarning,0834.8,5.00,000.00,019.7,019.1,000.0,028.2,021.5,023.5,0000.0,0010.17,0006.41,0005.75
2024-04-19 03:55:00,SystemResetWarning,0834.6,5.00,000.00,019.6,019.1,000.0,028.2,021.4,023.5,0000.0,0010.30,0006.39,0005.74
2024-04-19 03:56:00,SystemResetWarning,0834.7,5.00,000.00,019.7,019.1,000.0,028.2,021.5,023.5,0000.0,0010.76,0006.43,0005.74
2024-04-19 03:57:00,SystemResetWarning,0834.7,5.00,000.00,019.7,019.1,000.0,028.2,021.5,023.4,0000.0,0011.08,0006.38,0005.73
2024-04-19 03:58:00,SystemResetWarning,0834.9,5.00,000.00,019.7,019.1,000.0,028.2,021.5,023.5,0000.0,0010.92,0006.31,0005.70
2024-04-19 03:59:00,SystemResetWarning,0834.7,5.00,000.00,019.7,019.1,000.0,028.2,021.5,023.5,0000.0,0010.81,0006.28,0005.68
